Flag for Peru Weather past 2 weeks in Arequipa, Arequipa, Peru

Now
66 °F

Passing clouds.


Feels Like: 66 °F
Forecast: 51 / 72 °F
Wind: 5 mph from West

Location: Arequipa Airport

Current Time: Aug 1, 2015 at 10:00:47 AM

Latest Report: Aug 1, 2015 at 9:00 AM


Visibility: N/A

Pressure: 30.30 "Hg (23.03 "Hg at 2345m altitude)

Humidity: 11%

Dew point: 10 °F

Location of ArequipaLocation

Historic Weather in Arequipa — Graph

°F

Arequipa temperature yesterday

Maximum temperature yesterday: 72 °F (at 1:00 PM)
Minimum temperature yesterday: 48 °F (at 4:00 AM)
Average temperature yesterday: 59 °F

Past Weeks' High & Low Weather Summary

 TemperatureHumidityPressure
High77 °F (Jul 25, 1:00 PM)66% (Jul 21, 11:00 PM)30.42 "Hg (Jul 21, 11:00 PM)
Low41 °F (Jul 22, 4:00 AM)4% (Jul 20, 10:00 AM)30.21 "Hg (Jul 25, 2:00 PM)
Average59 °F20%30.31 "Hg
* Reported Jul 17 8:00 AM — Aug 1 8:00 AM, Arequipa, Weather by CustomWeather, © 2015

Note: Actual official high and low records may vary slightly from our data, if they occured in-between our weather recording intervals... More about our weather records

Advertising

Arequipa weather history for previous 24 hours

 ConditionsComfort  
Time TempWeatherWind HumidityBarometerVisibility
8:00 AM
Sat, Aug 1
63 °FSunny.2 mph13%30.30 "Hg10 mi
7:15 AM57 °FSunny.7 mph15%30.27 "Hg10 mi
7:00 AM52 °FPassing clouds.7 mph19%30.27 "HgN/A
6:00 AM50 °FClear.6 mph20%30.27 "Hg10 mi
5:00 AM55 °FClear.7 mph14%30.24 "Hg10 mi
4:00 AM54 °FClear.8 mph16%30.27 "Hg10 mi
3:00 AM52 °FClear.8 mph17%30.27 "Hg10 mi
2:00 AM50 °FClear.6 mph19%30.27 "Hg10 mi
1:00 AM54 °FClear.6 mph18%30.30 "Hg10 mi
12:00 AM52 °FClear.6 mph20%30.33 "Hg10 mi
11:00 PM
Fri, Jul 31
55 °FClear.6 mph18%30.33 "Hg10 mi
10:00 PM52 °FPassing clouds.7 mph22%30.33 "HgN/A
9:00 PM55 °FClear.5 mph19%30.33 "Hg10 mi
8:00 PM55 °FClear.8 mph21%30.33 "Hg10 mi
7:00 PM57 °FClear.2 mph21%30.30 "Hg10 mi
6:00 PM59 °FClear.6 mph18%30.30 "Hg10 mi
5:00 PM64 °FPassing clouds.9 mph14%30.27 "HgN/A
4:00 PM68 °FSunny.12 mph12%30.24 "Hg10 mi
3:00 PM68 °FPassing clouds.10 mph12%30.24 "HgN/A
2:00 PM70 °FPassing clouds.12 mph12%30.27 "HgN/A
1:00 PM72 °FPassing clouds.10 mph10%30.27 "HgN/A
12:00 PM70 °FPassing clouds.9 mph10%30.30 "HgN/A
11:00 AM68 °FPassing clouds.12 mph11%30.30 "HgN/A
10:00 AM68 °FPassing clouds.7 mph11%30.33 "HgN/A
Weather by CustomWeather, © 2015

See weather overviewHow to use our weather pages